Flag for Switzerland Weather past 2 weeks in Martigny, Valais, Switzerland

Now
44 °F

Quite cool.


Feels Like: 35 °F
Forecast: 21 / 51 °F
Wind: 23 mph from West

Location: Sion

Current Time: Oct 22, 2014 at 11:08:44 AM

Latest Report: Oct 22, 2014 at 10:00 AM


Visibility: N/A

Pressure: 30.20 "Hg

Humidity: 75%

Dew point: 36 °F

Location of MartignyLocation

Historic Weather in Martigny — Graph

°F

Martigny temperature yesterday

Maximum temperature yesterday: 70 °F (at 2:00 PM)
Minimum temperature yesterday: 50 °F (at 11:00 PM)
Average temperature yesterday: 61 °F

Past Weeks' High & Low Weather Summary

 TemperatureHumidityPressure
High78 °F (Oct 9, 3:00 PM)99% (Oct 14, 3:00 AM)30.34 "Hg (Oct 14, 3:00 AM)
Low43 °F (Oct 22, 9:00 AM)33% (Oct 9, 2:00 PM)29.75 "Hg (Oct 15, 4:00 PM)
Average59 °F79%29.98 "Hg
* Reported Oct 7 9:00 AM — Oct 22 9:00 AM, Martigny, Weather by CustomWeather, © 2014

Note: Actual official high and low records may vary slightly from our data, if they occured in-between our weather recording intervals... More about our weather records

Advertising

Martigny weather history for previous 24 hours

 ConditionsComfort  
Time TempWeatherWind HumidityBarometerVisibility
9:00 AM
Oct 22
43 °FQuite cool.7 mph80%30.19 "HgN/A
8:00 AM43 °FHeavy rain. Overcast.3 mph75%30.15 "Hg6 mi
7:00 AM45 °FCool.5 mph65%30.13 "HgN/A
6:00 AM47 °FCool.2 mph55%30.10 "HgN/A
5:00 AM46 °FRain. Overcast.6 mph67%30.10 "Hg6 mi
4:00 AM45 °FCool.2 mph83%30.13 "HgN/A
3:00 AM46 °FCool.12 mph78%30.14 "HgN/A
2:00 AM50 °FRain. Overcast.7 mph60%30.10 "Hg9 mi
1:00 AM51 °FCool.8 mph65%30.09 "HgN/A
12:00 AM50 °FCool.10 mph76%30.09 "HgN/A
11:00 PM
Oct 21
50 °FHeavy rain. Overcast.9 mph68%30.07 "Hg6 mi
10:00 PM56 °FCool.12 mph80%29.93 "HgN/A
9:00 PM60 °FCool.18 mph70%29.84 "HgN/A
8:00 PM62 °FLight rain. Overcast.10 mph64%29.84 "Hg11 mi
7:00 PM64 °FMild.10 mph56%29.84 "HgN/A
6:00 PM66 °FMild.15 mph49%29.84 "HgN/A
5:00 PM66 °FPartly sunny.8 mph59%29.86 "Hg12 mi
4:00 PM66 °FMild.14 mph62%29.88 "HgN/A
3:00 PM69 °FMild.21 mph64%29.87 "HgN/A
2:00 PM70 °FPartly sunny.8 mph68%29.89 "Hg9 mi
1:00 PM64 °FMild.2 mph82%29.94 "HgN/A
12:00 PM64 °FMild.2 mph83%29.98 "HgN/A
11:00 AM61 °FRain. Overcast.2 mph91%30.02 "Hg9 mi
Weather by CustomWeather, © 2014

See weather overviewHow to use our weather pages